Cairo, IL

12:39 AM CST on December 12, 2019 (GMT -0600)
Cairo Regional

Weather History for KCIR - November, 2019

Change the Weather History Date:

Tuesday, November 12, 2019

  Actual Average Record
Temperature  
Mean Temperature 18 °F -  
Max Temperature 24 °F 55 °F 80 °F (2010)
Min Temperature 13 °F 39 °F 24 °F (1976)
Degree Days  
Heating Degree Days 46    
Moisture  
Dew Point 8 °F    
Average Humidity 64    
Maximum Humidity 88    
Minimum Humidity 48    
Precipitation  
Precipitation 0.00 in - - ()
Sea Level Pressure  
Sea Level Pressure 30.54 in    
Wind  
Wind Speed 11 mph ()    
Max Wind Speed 23 mph    
Max Gust Speed 31 mph    
Visibility 10.0 miles    
Events      
Averages and records for this station are not official NWS values.
T = Trace of Precipitation, MM = Missing Value Source: Averaged Metar Reports

Daily Weather History Graph

Daily Weather History Graph

Search for Another Location

Airport or City:

Astronomy

Nov. 12, 2019 Rise Set
Actual Time 6:32 AM CST 4:49 PM CST
Civil Twilight 6:04 AM CST 5:16 PM CST
Nautical Twilight 5:33 AM CST 5:48 PM CST
Astronomical Twilight 5:02 AM CST 6:18 PM CST
Moon 5:15 PM CST 6:24 AM CST
Length of Visible Light 11h 12m
Length of Day
10h 17m
Full, 100% of the Moon is Illuminated
Nov 12
Full
Nov 19
Last Quarter
Nov 26
New
Dec 4
First Quarter
Dec 11
Full

Hourly Weather History & Observations

Time (CST) Temp. Windchill Dew Point Humidity Pressure Visibility Wind Dir Wind Speed Gust Speed Precip Events Conditions
12:15 AM 21.2 °F 4.9 °F 12.0 °F 68% 30.46 in 10.0 mi NNW 23.0 mph 31.1 mph N/A   Clear
12:35 AM 20.7 °F 4.9 °F 11.1 °F 67% 30.46 in 10.0 mi North 20.7 mph 29.9 mph N/A   Clear
12:55 AM 20.1 °F 4.6 °F 11.8 °F 70% 30.47 in 10.0 mi NNW 19.6 mph 28.8 mph N/A   Clear
1:15 AM 19.8 °F 3.3 °F 11.1 °F 69% 30.48 in 10.0 mi NNW 21.9 mph 27.6 mph N/A   Clear
1:35 AM 19.2 °F 4.7 °F 11.3 °F 71% 30.48 in 10.0 mi NNW 16.1 mph 25.3 mph N/A   Clear
1:55 AM 19.0 °F 4.0 °F 10.8 °F 70% 30.49 in 10.0 mi North 17.3 mph 27.6 mph N/A   Clear
2:15 AM 18.5 °F 6.1 °F 10.9 °F 72% 30.49 in 10.0 mi North 11.5 mph 18.4 mph N/A   Scattered Clouds
2:55 AM 18.0 °F 3.6 °F 9.5 °F 70% 30.51 in 10.0 mi North 15.0 mph 21.9 mph N/A   Scattered Clouds
3:15 AM 17.4 °F 3.5 °F 9.1 °F 70% 30.52 in 10.0 mi North 13.8 mph 20.7 mph N/A   Scattered Clouds
3:35 AM 17.2 °F 2.2 °F 8.6 °F 69% 30.53 in 10.0 mi NNW 16.1 mph 21.9 mph N/A   Scattered Clouds
3:55 AM 16.7 °F 2.6 °F 8.2 °F 69% 30.53 in 10.0 mi NNW 13.8 mph 20.7 mph N/A   Clear
4:15 AM 16.7 °F 2.6 °F 7.9 °F 68% 30.53 in 10.0 mi North 13.8 mph 24.2 mph N/A   Clear
4:35 AM 16.3 °F 4.1 °F 7.7 °F 69% 30.54 in 10.0 mi North 10.4 mph - N/A   Clear
4:55 AM 15.8 °F 1.4 °F 7.9 °F 71% 30.55 in 10.0 mi NNW 13.8 mph - N/A   Clear
5:15 AM 15.8 °F 2.7 °F 7.5 °F 70% 30.55 in 10.0 mi NNW 11.5 mph 17.3 mph N/A   Clear
5:35 AM 15.4 °F 0.4 °F 6.8 °F 69% 30.55 in 10.0 mi NNW 15.0 mph 21.9 mph N/A   Clear
5:55 AM 15.1 °F 1.1 °F 6.4 °F 69% 30.56 in 10.0 mi North 12.7 mph 19.6 mph N/A   Clear
6:15 AM 14.9 °F 0.3 °F 6.3 °F 69% 30.56 in 10.0 mi NNW 13.8 mph - N/A   Clear
6:35 AM 14.7 °F -1.1 °F 6.6 °F 70% 30.57 in 10.0 mi NNW 16.1 mph 19.6 mph N/A   Clear
6:55 AM 14.9 °F 0.9 °F 6.3 °F 69% 30.58 in 10.0 mi NNW 12.7 mph 18.4 mph N/A   Clear
7:15 AM 15.1 °F 0.5 °F 6.6 °F 69% 30.58 in 10.0 mi NNW 13.8 mph - N/A   Clear
7:55 AM 15.8 °F 0.3 °F 6.8 °F 68% 30.61 in 10.0 mi NNW 16.1 mph 20.7 mph N/A   Clear
8:15 AM 16.2 °F 3.2 °F 7.0 °F 67% 30.61 in 10.0 mi North 11.5 mph - N/A   Clear
8:35 AM 16.7 °F 3.2 °F 7.7 °F 68% 30.61 in 10.0 mi North 12.7 mph 19.6 mph N/A   Clear
8:55 AM 16.7 °F 1.5 °F 7.3 °F 67% 30.61 in 10.0 mi North 16.1 mph 20.7 mph N/A   Clear
9:35 AM 18.1 °F 6.3 °F 8.6 °F 66% 30.62 in 10.0 mi North 10.4 mph - N/A   Scattered Clouds
9:55 AM 19.0 °F 6.1 °F 9.3 °F 66% 30.62 in 10.0 mi North 12.7 mph 18.4 mph N/A   Scattered Clouds
10:15 AM 19.4 °F 8.6 °F 9.0 °F 64% 30.61 in 10.0 mi North 9.2 mph - N/A   Scattered Clouds
10:35 AM 19.9 °F 8.6 °F 8.6 °F 61% 30.61 in 10.0 mi North 10.4 mph - N/A   Scattered Clouds
10:55 AM 20.5 °F 8.0 °F 8.8 °F 61% 30.60 in 10.0 mi North 12.7 mph - N/A   Clear
11:15 AM 20.7 °F 8.8 °F 7.0 °F 56% 30.60 in 10.0 mi North 11.5 mph - N/A   Clear
11:35 AM 21.2 °F 8.9 °F 6.8 °F 54% 30.59 in 10.0 mi North 12.7 mph 17.3 mph N/A   Clear
11:55 AM 21.4 °F 8.5 °F 6.3 °F 52% 30.58 in 10.0 mi North 13.8 mph - N/A   Clear
12:15 PM 22.1 °F 11.3 °F 6.4 °F 51% 30.58 in 10.0 mi North 10.4 mph 17.3 mph N/A   Clear
12:35 PM 22.8 °F 12.2 °F 7.2 °F 51% 30.57 in 10.0 mi North 10.4 mph - N/A   Clear
12:55 PM 23.4 °F 12.8 °F 7.3 °F 50% 30.56 in 10.0 mi North 10.4 mph 17.3 mph N/A   Clear
1:15 PM 23.9 °F 12.9 °F 7.3 °F 49% 30.55 in 10.0 mi North 11.5 mph 18.4 mph N/A   Clear
1:35 PM 24.1 °F 13.7 °F 7.5 °F 49% 30.54 in 10.0 mi North 10.4 mph 16.1 mph N/A   Clear
1:55 PM 23.9 °F 14.2 °F 6.8 °F 48% 30.54 in 10.0 mi North 9.2 mph - N/A   Clear
2:15 PM 24.3 °F 13.9 °F 7.2 °F 48% 30.53 in 10.0 mi NNE 10.4 mph - N/A   Clear
2:35 PM 24.6 °F 15.8 °F 8.1 °F 49% 30.52 in 10.0 mi North 8.1 mph - N/A   Clear
2:55 PM 24.4 °F 15.6 °F 7.5 °F 49% 30.52 in 10.0 mi NNE 8.1 mph - N/A   Clear
3:15 PM 24.4 °F 15.6 °F 7.7 °F 49% 30.52 in 10.0 mi North 8.1 mph - N/A   Clear
3:35 PM 23.9 °F 15.0 °F 6.8 °F 48% 30.51 in 10.0 mi North 8.1 mph - N/A   Clear
3:55 PM 23.7 °F 15.6 °F 6.8 °F 49% 30.50 in 10.0 mi NNE 6.9 mph - N/A   Clear
4:15 PM 23.0 °F 18.4 °F 7.0 °F 50% 30.52 in 10.0 mi North 3.5 mph - N/A   Clear
4:35 PM 22.1 °F 17.4 °F 7.5 °F 54% 30.52 in 10.0 mi North 3.5 mph - N/A   Clear
4:55 PM 21.2 °F - 6.8 °F 54% 30.52 in 10.0 mi Calm Calm - N/A   Clear
5:15 PM 20.8 °F 11.2 °F 6.8 °F 55% 30.52 in 10.0 mi NNE 8.1 mph - N/A   Clear
5:35 PM 20.3 °F - 7.0 °F 56% 30.53 in 10.0 mi Calm Calm - N/A   Clear
5:55 PM 19.9 °F 14.9 °F 7.2 °F 58% 30.53 in 10.0 mi North 3.5 mph - N/A   Clear
6:15 PM 19.4 °F - 7.3 °F 60% 30.54 in 10.0 mi Calm Calm - N/A   Clear
6:35 PM 19.2 °F - 7.3 °F 60% 30.54 in 10.0 mi Calm Calm - N/A   Clear
6:55 PM 18.9 °F - 6.8 °F 59% 30.54 in 10.0 mi Calm Calm - N/A   Clear
7:15 PM 18.5 °F - 6.6 °F 60% 30.54 in 10.0 mi Calm Calm - N/A   Clear
7:35 PM 17.6 °F - 7.5 °F 65% 30.53 in 10.0 mi Calm Calm - N/A   Clear
7:55 PM 16.7 °F - 7.9 °F 68% 30.53 in 10.0 mi Calm Calm - N/A   Clear
8:15 PM 17.1 °F - 7.2 °F 65% 30.52 in 10.0 mi Calm Calm - N/A   Clear
8:35 PM 16.7 °F - 6.6 °F 65% 30.52 in 10.0 mi Calm Calm - N/A   Clear
8:55 PM 16.5 °F - 6.8 °F 66% 30.51 in 10.0 mi Calm Calm - N/A   Clear
9:35 PM 15.8 °F - 8.4 °F 73% 30.51 in 10.0 mi Calm Calm - N/A   Clear
9:55 PM 15.4 °F - 9.0 °F 76% 30.50 in 10.0 mi Calm Calm - N/A   Clear
10:15 PM 14.7 °F - 10.2 °F 82% 30.50 in 10.0 mi Calm Calm - N/A   Clear
10:35 PM 14.7 °F - 9.1 °F 79% 30.50 in 10.0 mi Calm Calm - N/A   Clear
10:55 PM 14.0 °F - 10.9 °F 88% 30.50 in 10.0 mi Calm Calm - N/A   Clear
11:15 PM 13.6 °F - 10.0 °F 86% 30.48 in 10.0 mi Calm Calm - N/A   Clear
11:35 PM 14.0 °F - 10.6 °F 86% 30.48 in 10.0 mi Calm Calm - N/A   Clear